Location: Ammerl�gen
(47.2167°N, 9.6000°E)
Time: 17:45:56
(UTC+00:00)

Envisat - Pass Details

Date: 06 October 2021
Orbit: 764 x 766 km, 98.2° (Epoch: 19 October)

Event Time Altitude Azimuth Distance (km) Brightness Sun altitude
Rises 03:47:10 0° 22° (NNE) 3,242 6.7 -17.7°
Reaches altitude 10° 03:49:44 10° 32° (NNE) 2,311 6.1 -17.3°
Maximum altitude 03:54:15 32° 95° (E) 1,307 4.9 -16.6°
Drops below altitude 10° 03:58:45 10° 158° (SSE) 2,295 5.6 -15.8°
Sets 04:01:16 0° 168° (SSE) 3,216 6.3 -15.4°
